TimeEST,TemperatureF,Dew PointF,Humidity,Sea Level PressureIn,VisibilityMPH,Wind Direction,Wind SpeedMPH,Gust SpeedMPH,PrecipitationIn,Events,Conditions,WindDirDegrees,DateUTC
12:54 AM,34.0,27.0,75,29.94,10.0,WSW,5.8,-,N/A,,Partly Cloudy,250,2011-11-17 05:54:00
1:54 AM,34.0,27.0,75,29.94,10.0,WSW,8.1,-,N/A,,Mostly Cloudy,250,2011-11-17 06:54:00
2:54 AM,36.0,27.0,70,29.95,10.0,WNW,9.2,-,N/A,,Overcast,290,2011-11-17 07:54:00
3:54 AM,36.0,27.0,70,29.94,10.0,West,6.9,-,N/A,,Mostly Cloudy,270,2011-11-17 08:54:00
4:54 AM,35.1,27.0,72,29.95,10.0,West,10.4,-,N/A,,Overcast,260,2011-11-17 09:54:00
5:54 AM,34.0,26.1,73,29.96,10.0,WSW,9.2,-,N/A,,Overcast,250,2011-11-17 10:54:00
6:54 AM,33.1,26.1,75,29.97,10.0,WSW,8.1,-,N/A,,Overcast,240,2011-11-17 11:54:00
7:54 AM,34.0,25.0,70,29.97,10.0,WSW,9.2,-,N/A,,Overcast,250,2011-11-17 12:54:00
8:54 AM,36.0,25.0,64,29.97,10.0,West,9.2,-,N/A,,Overcast,270,2011-11-17 13:54:00
9:54 AM,37.0,25.0,62,29.99,10.0,West,10.4,-,N/A,,Overcast,270,2011-11-17 14:54:00
10:54 AM,37.9,25.0,60,29.99,10.0,West,11.5,-,N/A,,Overcast,260,2011-11-17 15:54:00
11:54 AM,39.0,23.0,53,29.96,10.0,WNW,12.7,-,N/A,,Overcast,300,2011-11-17 16:54:00
12:54 PM,39.9,18.0,41,29.93,10.0,West,17.3,-,N/A,,Overcast,270,2011-11-17 17:54:00
1:54 PM,41.0,15.1,35,29.92,10.0,WNW,18.4,25.3,N/A,,Mostly Cloudy,300,2011-11-17 18:54:00
2:54 PM,39.0,14.0,36,29.91,10.0,NW,11.5,-,N/A,,Mostly Cloudy,310,2011-11-17 19:54:00
3:54 PM,39.0,16.0,39,29.92,10.0,WNW,9.2,18.4,N/A,,Overcast,300,2011-11-17 20:54:00
4:54 PM,35.1,26.1,70,29.94,9.0,WSW,15.0,-,0.00,Snow,Light Snow,240,2011-11-17 21:54:00
5:54 PM,33.1,27.0,78,29.96,9.0,WSW,9.2,-,0.00,Snow,Light Snow,240,2011-11-17 22:54:00
6:03 PM,33.8,26.6,75,29.96,2.0,WNW,8.1,-,0.00,Snow,Light Snow,290,2011-11-17 23:03:00
6:06 PM,33.8,28.4,81,29.96,0.8,West,12.7,19.6,0.00,Snow,Light Snow,280,2011-11-17 23:06:00
6:20 PM,32.0,30.2,93,29.95,2.0,SW,8.1,-,0.03,Snow,Light Snow,220,2011-11-17 23:20:00
6:24 PM,32.0,30.2,93,29.96,4.0,SW,8.1,-,0.03,Snow,Light Snow,230,2011-11-17 23:24:00
6:32 PM,30.2,30.2,100,29.96,9.0,SW,6.9,-,0.03,,Mostly Cloudy,230,2011-11-17 23:32:00
6:54 PM,30.9,28.0,89,29.99,10.0,WSW,8.1,-,0.03,,Mostly Cloudy,250,2011-11-17 23:54:00
7:08 PM,30.2,28.4,93,29.98,1.0,West,19.6,26.5,0.00,Snow,Light Snow,270,2011-11-18 00:08:00
7:19 PM,32.0,28.4,87,29.98,4.0,West,13.8,23.0,0.00,Snow,Light Snow,270,2011-11-18 00:19:00
7:34 PM,30.2,26.6,86,29.98,10.0,West,12.7,-,0.00,,Mostly Cloudy,270,2011-11-18 00:34:00
7:54 PM,30.9,26.1,82,30.01,10.0,West,9.2,-,0.00,,Scattered Clouds,280,2011-11-18 00:54:00
8:54 PM,30.0,25.0,82,30.03,10.0,West,9.2,-,N/A,,Scattered Clouds,260,2011-11-18 01:54:00
9:54 PM,30.9,24.1,76,30.04,10.0,West,11.5,24.2,0.00,Snow,Light Snow,270,2011-11-18 02:54:00
10:54 PM,32.0,23.0,69,30.07,8.0,West,15.0,26.5,0.00,Snow,Light Snow,280,2011-11-18 03:54:00
11:54 PM,30.9,21.9,69,30.09,10.0,West,15.0,-,0.00,,Mostly Cloudy,270,2011-11-18 04:54:00